EN

Hourly Weather Gogolevo

Today, 16 May, Sunday

Time Temperature Precipitation Wind Pressure Humidity
00:00 +12°C° 0 mm 2 mps 748 mmHg 97%
01:00 +10°C° 0 mm 2 mps 748 mmHg 98%
02:00 +10°C° 0 mm 2 mps 748 mmHg 98%
03:00 +10°C° 0 mm 2 mps 749 mmHg 98%
04:00 +10°C° 0 mm 2 mps 749 mmHg 98%
05:00 +10°C° 0 mm 2 mps 749 mmHg 98%
06:00 +12°C° 0 mm 2 mps 750 mmHg 96%
07:00 +13°C° 0 mm 2 mps 750 mmHg 94%
08:00 +14°C° 0 mm 2 mps 751 mmHg 92%
09:00 +15°C° 0 mm 2 mps 751 mmHg 88%
10:00 +16°C° 0 mm 2 mps 751 mmHg 83%
11:00 +16°C° 0 mm 2 mps 752 mmHg 79%
12:00 +19°C° 0 mm 1 mps 752 mmHg 70%
13:00 +20°C° 0 mm 1 mps 752 mmHg 62%
14:00 +21°C° 0 mm 1 mps 752 mmHg 53%
15:00 +22°C° 0 mm 1 mps 752 mmHg 52%
16:00 +22°C° 0 mm 1 mps 752 mmHg 51%
17:00 +22°C° 0 mm 1 mps 752 mmHg 49%
18:00 +20°C° 0 mm 1 mps 752 mmHg 58%
19:00 +18°C° 0 mm 1 mps 752 mmHg 67%
20:00 +15°C° 0 mm 2 mps 752 mmHg 76%
21:00 +14°C° 0 mm 2 mps 752 mmHg 80%
22:00 +14°C° 0 mm 2 mps 752 mmHg 84%
23:00 +13°C° 0 mm 2 mps 752 mmHg 87%

Tomorrow, 17 May, Monday

Time Temperature Precipitation Wind Pressure Humidity
00:00 +12°C° 0 mm 2 mps 752 mmHg 89%
01:00 +12°C° 0 mm 2 mps 752 mmHg 91%
02:00 +12°C° 0 mm 2 mps 752 mmHg 93%
03:00 +12°C° 0 mm 2 mps 752 mmHg 92%
04:00 +12°C° 0 mm 2 mps 752 mmHg 91%
05:00 +13°C° 0 mm 2 mps 752 mmHg 89%
06:00 +14°C° 0 mm 3 mps 752 mmHg 83%
07:00 +17°C° 0 mm 3 mps 752 mmHg 76%
08:00 +19°C° 0 mm 4 mps 752 mmHg 69%
09:00 +20°C° 0 mm 4 mps 752 mmHg 65%
10:00 +21°C° 0 mm 4 mps 752 mmHg 61%
11:00 +22°C° 0 mm 5 mps 751 mmHg 57%
12:00 +22°C° 0.2 mm 4 mps 751 mmHg 61%
13:00 +21°C° 0.2 mm 4 mps 751 mmHg 65%
14:00 +21°C° 0.2 mm 4 mps 751 mmHg 69%
15:00 +20°C° 0.7 mm 3 mps 751 mmHg 75%
16:00 +18°C° 0.7 mm 3 mps 751 mmHg 82%
17:00 +17°C° 0.7 mm 3 mps 751 mmHg 88%
18:00 +16°C° 0.5 mm 2 mps 751 mmHg 91%
19:00 +16°C° 0.5 mm 2 mps 751 mmHg 93%
20:00 +15°C° 0.5 mm 1 mps 751 mmHg 96%
21:00 +15°C° 0.4 mm 1 mps 750 mmHg 96%
22:00 +14°C° 0.4 mm 1 mps 750 mmHg 97%
23:00 +14°C° 0.4 mm 2 mps 750 mmHg 97%

Day after tomorrow, 18 May, Tuesday

Time Temperature Precipitation Wind Pressure Humidity
00:00 +14°C° 0.1 mm 2 mps 749 mmHg 97%
01:00 +14°C° 0.1 mm 2 mps 749 mmHg 98%
02:00 +13°C° 0.1 mm 3 mps 748 mmHg 98%
03:00 +14°C° 0 mm 3 mps 748 mmHg 98%
04:00 +14°C° 0 mm 3 mps 747 mmHg 98%
05:00 +14°C° 0 mm 3 mps 747 mmHg 98%
06:00 +16°C° 0.6 mm 3 mps 746 mmHg 96%
07:00 +17°C° 0.6 mm 3 mps 746 mmHg 95%
08:00 +18°C° 0.6 mm 4 mps 745 mmHg 94%
09:00 +19°C° 0.3 mm 4 mps 745 mmHg 91%
10:00 +20°C° 0.3 mm 4 mps 745 mmHg 89%
11:00 +21°C° 0.3 mm 4 mps 745 mmHg 86%
12:00 +22°C° 0.6 mm 5 mps 744 mmHg 83%
13:00 +22°C° 0.6 mm 5 mps 744 mmHg 80%
14:00 +23°C° 0.6 mm 5 mps 744 mmHg 77%
15:00 +22°C° 0.4 mm 5 mps 744 mmHg 77%
16:00 +21°C° 0.4 mm 6 mps 744 mmHg 77%
17:00 +21°C° 0.4 mm 6 mps 744 mmHg 77%
18:00 +20°C° 0.1 mm 5 mps 744 mmHg 80%
19:00 +19°C° 0.1 mm 5 mps 744 mmHg 83%
20:00 +17°C° 0.1 mm 5 mps 745 mmHg 86%
21:00 +16°C° 0 mm 5 mps 745 mmHg 87%
22:00 +16°C° 0 mm 5 mps 745 mmHg 87%
23:00 +15°C° 0 mm 4 mps 745 mmHg 88%

19 May, Wednesday

Time Temperature Precipitation Wind Pressure Humidity
00:00 +14°C° 0 mm 4 mps 746 mmHg 89%
01:00 +13°C° 0 mm 4 mps 746 mmHg 90%
02:00 +12°C° 0 mm 4 mps 747 mmHg 91%
03:00 +12°C° 0 mm 3 mps 747 mmHg 90%
04:00 +12°C° 0 mm 3 mps 747 mmHg 90%
05:00 +12°C° 0 mm 3 mps 747 mmHg 89%
06:00 +13°C° 0 mm 2 mps 748 mmHg 86%
07:00 +14°C° 0 mm 2 mps 748 mmHg 83%
08:00 +15°C° 0 mm 2 mps 748 mmHg 79%
09:00 +15°C° 0 mm 2 mps 748 mmHg 77%
10:00 +16°C° 0 mm 2 mps 748 mmHg 75%
11:00 +17°C° 0 mm 3 mps 748 mmHg 73%
12:00 +16°C° 0 mm 3 mps 747 mmHg 73%
13:00 +16°C° 0 mm 3 mps 747 mmHg 74%
14:00 +16°C° 0 mm 3 mps 747 mmHg 75%
15:00 +16°C° 0.2 mm 3 mps 746 mmHg 78%
16:00 +16°C° 0.2 mm 3 mps 746 mmHg 81%
17:00 +16°C° 0.2 mm 3 mps 746 mmHg 85%
18:00 +16°C° 0.3 mm 3 mps 745 mmHg 89%
19:00 +14°C° 0.3 mm 3 mps 745 mmHg 93%
20:00 +14°C° 0.3 mm 3 mps 745 mmHg 96%
21:00 +13°C° 0 mm 3 mps 745 mmHg 96%
22:00 +13°C° 0 mm 3 mps 745 mmHg 96%
23:00 +12°C° 0 mm 3 mps 744 mmHg 96%

20 May, Thursday

Time Temperature Precipitation Wind Pressure Humidity
00:00 +12°C° 0.1 mm 3 mps 744 mmHg 97%
01:00 +13°C° 0.1 mm 2 mps 744 mmHg 97%
02:00 +12°C° 0.1 mm 2 mps 744 mmHg 97%
03:00 +12°C° 0 mm 2 mps 744 mmHg 97%
04:00 +12°C° 0 mm 2 mps 744 mmHg 98%
05:00 +12°C° 0 mm 2 mps 744 mmHg 98%
06:00 +12°C° 0.1 mm 2 mps 744 mmHg 97%
07:00 +12°C° 0.1 mm 1 mps 744 mmHg 97%
08:00 +12°C° 0.1 mm 1 mps 745 mmHg 97%
09:00 +12°C° 0.1 mm 2 mps 745 mmHg 97%
10:00 +12°C° 0.1 mm 2 mps 745 mmHg 97%
11:00 +12°C° 0.1 mm 2 mps 745 mmHg 96%
12:00 +11°C° 0.7 mm 3 mps 745 mmHg 97%
13:00 +11°C° 0.7 mm 3 mps 745 mmHg 97%
14:00 +10°C° 0.7 mm 3 mps 745 mmHg 97%
15:00 +10°C° 1.4 mm 4 mps 746 mmHg 97%
16:00 +9°C° 1.4 mm 5 mps 746 mmHg 96%
17:00 +9°C° 1.4 mm 5 mps 747 mmHg 96%
18:00 +9°C° 0.3 mm 5 mps 747 mmHg 95%
19:00 +10°C° 0.3 mm 4 mps 747 mmHg 95%
20:00 +10°C° 0.3 mm 4 mps 748 mmHg 94%
21:00 +8°C° 0 mm 4 mps 748 mmHg 94%
22:00 +7°C° 0 mm 4 mps 749 mmHg 94%
23:00 +8°C° 0 mm 3 mps 749 mmHg 94%

21 May, Friday

Time Temperature Precipitation Wind Pressure Humidity
00:00 +7°C° 0 mm 3 mps 750 mmHg 94%
01:00 +5°C° 0 mm 3 mps 750 mmHg 94%
02:00 +4°C° 0 mm 3 mps 750 mmHg 95%
03:00 +4°C° 0 mm 3 mps 751 mmHg 95%
04:00 +5°C° 0 mm 2 mps 751 mmHg 95%
05:00 +5°C° 0 mm 2 mps 751 mmHg 94%
06:00 +7°C° 0 mm 3 mps 751 mmHg 86%
07:00 +9°C° 0 mm 3 mps 751 mmHg 77%
08:00 +11°C° 0 mm 3 mps 751 mmHg 68%
09:00 +12°C° 0 mm 4 mps 751 mmHg 60%
10:00 +13°C° 0 mm 4 mps 751 mmHg 53%
11:00 +15°C° 0 mm 4 mps 751 mmHg 45%
12:00 +15°C° 0 mm 4 mps 751 mmHg 44%
13:00 +17°C° 0 mm 4 mps 751 mmHg 44%
14:00 +17°C° 0 mm 4 mps 750 mmHg 43%
15:00 +15°C° 0 mm 4 mps 750 mmHg 47%
16:00 +15°C° 0 mm 4 mps 750 mmHg 52%
17:00 +14°C° 0 mm 4 mps 750 mmHg 56%
18:00 +12°C° 0.1 mm 3 mps 750 mmHg 66%
19:00 +11°C° 0.1 mm 3 mps 750 mmHg 75%
20:00 +9°C° 0.1 mm 2 mps 750 mmHg 84%
21:00 +8°C° 0 mm 2 mps 750 mmHg 88%
22:00 +7°C° 0 mm 2 mps 750 mmHg 91%
23:00 +6°C° 0 mm 2 mps 751 mmHg 94%
Show more